Meteo Giornale » Osservazioni meteo Turchia » Adana-Incirlik
ore: 18:20 - Osservazioni Meteo Adana-Incirlik
Lat. 37° 0' N Lon. 35° 25' E Alt. 73 metri s.l.m.
31 °C
Sereno
Temp. 24 Ore
23 °C
37 °C
Sud-Ovest
18.5 Km/h
Dew point 19 °C
Umidità 48 %
Visibilità 10 Km
Il sole sorge alle ore 06:09
Il sole tramonta alle ore 19:07
| Data e Ora | Cielo e Fenomeni | T °C | DP °C | Um. % | Pres. hPa | Vis. km | Vento km/h | |
|---|---|---|---|---|---|---|---|---|
| Oggi h: 18:20 | Sereno | 31 | 19 | 48 | 1008 | 10 | SO 18.5 | |
| Oggi h: 17:50 | Sereno | 33 | 19 | 43 | 1008 | 10 | SO 18.5 | |
| Oggi h: 17:20 | Sereno | 33 | 18 | 41 | 1008 | 10 | SO 22.2 | |
| Oggi h: 16:50 | Sereno | 34 | 19 | 41 | 1007 | 10 | SO 22.2 | |
| Oggi h: 16:20 | Sereno | 35 | 19 | 39 | 1007 | 10 | S/SO 24 | |
| Oggi h: 15:50 | Sereno | 35 | 20 | 41 | 1007 | 10 | S/SO 22.2 | |
| Oggi h: 15:20 | Sereno | 36 | 20 | 39 | 1007 | 10 | S/SO 18.5 | |
| Oggi h: 14:50 | Sereno | 37 | 18 | 32 | 1007 | 10 | SO 11.1 | |
| Oggi h: 14:20 | Sereno | 36 | 19 | 36 | 1008 | 10 | O/SO 11.1 | |
| Oggi h: 13:50 | Sereno | 36 | 19 | 36 | 1008 | 10 | SO 11.1 | |
| Oggi h: 13:20 | Sereno | 35 | 19 | 39 | 1009 | 10 | S/SO 18.5 | |
| Oggi h: 12:50 | Sereno | 34 | 19 | 41 | 1009 | 10 | S 7.4 | |
| Oggi h: 12:20 | Sereno | 34 | 19 | 41 | 1009 | 10 | S 11.1 | |
| Oggi h: 11:50 | Sereno | 34 | 20 | 43 | 1009 | 10 | SE 11.1 | |
| Oggi h: 11:20 | Sereno | 34 | 20 | 43 | 1009 | 10 | S/SO 18.5 | |
| Oggi h: 10:50 | Poco Nuvoloso | 32 | 21 | 52 | 1009 | 10 | S/SE 9.3 | |
| Oggi h: 10:20 | Poco Nuvoloso | 32 | 21 | 52 | 1009 | 10 | S 11.1 | |
| Oggi h: 09:50 | Poco Nuvoloso | 31 | 22 | 58 | 1009 | 10 | E/SE 7.4 | |
| Oggi h: 09:20 | Nuvoloso | 31 | 22 | 58 | 1010 | 10 | S 9.3 | |
| Oggi h: 08:50 | Sereno | 30 | 23 | 66 | 1009 | 10 | N 5.5 | |
| Oggi h: 08:20 | Sereno | 28 | 23 | 74 | 1009 | 10 | N/NE 7.4 | |
| Oggi h: 07:50 | Sereno | 27 | 23 | 78 | 1009 | 10 | N/NE 9.3 | |
| Oggi h: 07:20 | Sereno | 25 | 22 | 83 | 1009 | 10 | N/NE 9.3 | |
| Oggi h: 06:50 | Sereno | 24 | 22 | 88 | 1009 | 10 | N/NE 9.3 | |
| Oggi h: 06:20 | Sereno | 23 | 21 | 88 | 1008 | 10 | N/NE 9.3 | |
| Oggi h: 05:50 | Sereno | 23 | 21 | 88 | 1008 | 10 | N 5.5 | |
| Oggi h: 05:20 | Sereno | 23 | 21 | 88 | 1014 | 10 | N 5.5 | |
| Oggi h: 04:50 | Sereno | 23 | 21 | 88 | 1014 | 10 | N 5.5 | |
| Oggi h: 04:20 | Sereno | 23 | 21 | 88 | 1008 | 10 | N 5.5 | |
| Oggi h: 03:50 | Sereno | 24 | 21 | 83 | 1008 | 10 | N/NE 9.3 | |
| Oggi h: 03:20 | Sereno | 24 | 21 | 83 | 1008 | 10 | N/NE 7.4 | |
| Oggi h: 02:50 | Sereno | 23 | 21 | 88 | 1008 | 10 | N 3.7 | |
| Oggi h: 02:20 | Sereno | 24 | 21 | 83 | 1008 | 10 | N/NE 9.3 | |
| Oggi h: 01:50 | Sereno | 24 | 21 | 83 | 1008 | 10 | N 5.5 | |
| Oggi h: 01:20 | Sereno | 24 | 21 | 83 | 1008 | 10 | NE 7.4 | |
| Oggi h: 00:50 | Sereno | 24 | 21 | 83 | 1008 | 10 | N/NE 7.4 | |
| Oggi h: 00:20 | Sereno | 25 | 21 | 78 | 1008 | 10 | N 5.5 | |
| Ieri h: 23:50 | Sereno | 25 | 21 | 78 | 1008 | 10 | NE 7.4 | |
| Ieri h: 23:20 | Sereno | 25 | 21 | 78 | 1008 | 10 | E/NE 7.4 | |
| Ieri h: 22:50 | Sereno | 26 | 21 | 73 | 1008 | 10 | NE 7.4 | |
| Ieri h: 22:20 | Sereno | 27 | 22 | 74 | 1008 | 10 | N 5.5 | |
| Ieri h: 21:50 | Sereno | 27 | 21 | 69 | 1008 | 10 | S 7.4 | |
| Ieri h: 21:20 | Sereno | 27 | 21 | 69 | 1008 | 10 | N 5.5 | |
| Ieri h: 20:50 | Sereno | 27 | 21 | 69 | 1008 | 10 | S 7.4 | |
| Ieri h: 20:20 | Sereno | 28 | 21 | 65 | 1007 | 10 | S 9.3 | |
| Ieri h: 19:50 | Sereno | 28 | 21 | 65 | 1007 | 10 | SO 9.3 | |
| Ieri h: 19:20 | Sereno | 29 | 21 | 62 | 1006 | 10 | S/SO 13 | |
| Ieri h: 18:50 | Sereno | 30 | 19 | 51 | 1006 | 10 | S/SO 20.3 | |



